Left ArrowRight Arrow

Hourly Observations for August 7, 2022

Temp ( °F °C ) Dew Point ( °F °C ) Humidity (%) Winds ( mph kmh ) Pressure ( in mb ) Visibility ( mi km ) Precip ( " mm )
12:04 am 00:04 Mostly Clear with Thunderstorms 74 23.3 72 22.2 94 94 E 6 9 29.90 1013 6 10 0.02 0.51
12:26 am 00:26 Clear with Nearby Thunderstorms 76 24.4 71 21.7 85 85 SE 6 9 29.88 1012 10 16 0.03 0.76
12:53 am 00:53 Clear 80 26.7 67 19.4 64 64 SSE 12 19 29.88 1012 10 16 0.03 0.76
1:53 am 01:53 Mostly Clear 80 26.7 66 18.9 62 62 SSE 13 20 29.87 1011 10 16 0.01 0.25
2:53 am 02:53 Mostly Clear 80 26.7 66 18.9 62 62 SSE 13 20 29.86 1011 10 16 0.00 0.00
3:53 am 03:53 Clear 82 27.8 63 17.2 53 53 S 15 24 29.84 1010 10 16 0.00 0.00
4:53 am 04:53 Clear 80 26.7 65 18.3 60 60 S 15 24 29.83 1010 10 16 0.00 0.00
5:53 am 05:53 Clear 78 25.6 65 18.3 64 64 S 9 15 29.84 1010 10 16 0.00 0.00
6:53 am 06:53 Sunny 73 22.8 66 18.9 79 79 NW 8 13 29.89 1012 10 16 0.00 0.00
7:53 am 07:53 Sunny 73 22.8 68 20 84 84 N 7 11 29.91 1013 10 16 0.00 0.00
8:14 am 08:14 Partly Cloudy with Mist and Fog 71 21.7 68 20 90 90 N 7 11 29.91 1013 5 8 0.00 0.00
8:36 am 08:36 Mostly Cloudy with Mist and Fog 71 21.7 68 20 90 90 NNW 9 15 29.91 1013 5 8 0.00 0.00
8:53 am 08:53 Cloudy with Mist and Fog 71 21.7 68 20 90 90 NNW 10 17 29.94 1014 6 10 0.00 0.00
9:16 am 09:16 Mostly Cloudy 73 22.8 68 20 84 84 NNW 7 11 29.92 1013 8 13 0.00 0.00
9:32 am 09:32 Partly Cloudy 73 23 68 20 83 83 N 9 15 29.92 1013 8 13 0.00 0.00
9:53 am 09:53 Mostly Sunny 74 23.3 68 20 82 82 N 8 13 29.95 1014 10 16 0.00 0.00
10:12 am 10:12 Mostly Cloudy 75 24 68 20 78 78 NNW 9 15 29.92 1013 10 16 0.00 0.00
10:34 am 10:34 Mostly Cloudy 74 23.3 67 19.4 79 79 NNW 12 19 29.92 1013 10 16 0.00 0.00
10:46 am 10:46 Partly Cloudy 75 23.9 68 20 79 79 NNW 10 17 29.92 1013 10 16 0.00 0.00
10:53 am 10:53 Mostly Cloudy 75 23.9 67 19.4 76 76 NNW 12 19 29.96 1015 10 16 0.00 0.00
11:06 am 11:06 Partly Cloudy 76 24.4 68 20 77 77 N 9 15 29.92 1013 10 16 0.00 0.00
11:16 am 11:16 Mostly Cloudy 76 24.4 67 19.4 74 74 N 9 15 29.93 1013 10 16 0.00 0.00
11:23 am 11:23 Partly Cloudy 75 24 66 19 74 74 N 9 15 29.93 1013 10 16 0.00 0.00
11:53 am 11:53 Sunny 76 24.4 68 20 77 77 N 7 11 29.97 1015 10 16 0.00 0.00
12:53 pm 12:53 Mostly Sunny 77 25 68 20 74 74 NNW 9 15 29.96 1015 10 16 0.00 0.00
1:43 pm 13:43 Mostly Cloudy 79 26.1 69 20.6 72 72 NNW 16 26 29.94 1014 10 16 0.00 0.00
1:53 pm 13:53 Partly Cloudy 80 26.7 69 20.6 69 69 NNW 16 26 29.98 1015 10 16 0.00 0.00
2:53 pm 14:53 Mostly Sunny 81 27.2 69 20.6 67 67 NE 10 17 29.95 1014 10 16 0.00 0.00
3:53 pm 15:53 Mostly Sunny 84 28.9 69 20.6 61 61 N 9 15 29.97 1015 10 16 0.00 0.00
4:26 pm 16:26 Mostly Cloudy 82 28 70 21 66 66 N 15 24 29.92 1013 10 16 0.00 0.00
4:53 pm 16:53 Cloudy 77 25 67 19.4 71 71 NNW 23 37 29.99 1016 10 16 0.00 0.00
5:43 pm 17:43 Mostly Sunny 73 22.8 65 18.3 76 76 N 18 30 29.97 1015 10 16 0.00 0.00
5:53 pm 17:53 Mostly Sunny 73 22.8 65 18.3 76 76 N 17 28 30.00 1016 10 16 0.00 0.00
6:53 pm 18:53 Mostly Cloudy 72 22.2 64 17.8 76 76 N 16 26 30.00 1016 10 16 0.00 0.00
7:53 pm 19:53 Partly Cloudy 69 20.6 63 17.2 81 81 N 14 22 30.01 1016 10 16 0.00 0.00
8:44 pm 20:44 Mostly Cloudy 70 21 63 17 78 78 N 10 17 30.01 1016 10 16 0.00 0.00
8:53 pm 20:53 Cloudy 69 20.6 62 16.7 78 78 N 8 13 30.05 1018 10 16 0.00 0.00
9:53 pm 21:53 Cloudy 68 20 61 16.1 78 78 N 18 30 30.05 1018 10 16 0.00 0.00
10:53 pm 22:53 Partly Cloudy 67 19.4 62 16.7 84 84 NNE 8 13 30.08 1019 10 16 0.00 0.00
11:53 pm 23:53 Mostly Clear 66 18.9 62 16.7 87 87 N 7 11 30.08 1019 10 16 0.00 0.00

Powered by Vaisala Xweather